Tracking 31028 objects as of 17-Jul-2025
HD Live streaming from Space Station
objects crossing your sky now

DELTA 2 DEB

Track DELTA 2 DEB now!
10-day predictions


NORAD ID: 26967
Int'l Code: 1993-017E
Perigee: 224.6 km
Apogee: 8,288.4 km
Inclination: 34.9 °
Period: 181.7 minutes
Semi major axis: 10627 km
RCS: 0.0077 m2 (small)
Launch date: March 30, 1993
Source: United States (US)
Launch site: AIR FORCE EASTERN TEST RANGE (AFETR)

Note: This is SATELLITE DEBRIS
Your satellite tracking list
Your tracking list is empty




NASA's NSSDC Master Catalog

Two Line Element Set (TLE):
1 26967U 93017E   25198.02838135  .00026212  00000-0  44828-3 0  9997
2 26967  34.9304 156.5916 3793792 161.6452 217.0732  7.92421412602577
Source of the keplerian elements: AFSPC